Location: Paul P. Feder Observatory
(46.8670°N, 96.4537°W)
Time: 00:12:29
(UTC-05:00)

BlueWalker 3 - Visible Passes

Search period start: 12 September 2024 00:00
Search period end: 22 September 2024 00:00
Orbit: 476 x 487 km, 53.2° (Epoch: 11 September)

Date Brightness Start Highest point End Pass type
(mag) Time Alt. Az. Time Alt. Az. Time Alt. Az.
12 Sep 1.9 20:13:27 10° WNW 20:17:13 88° NNE 20:20:59 10° ESE visible
12 Sep 4.0 21:52:18 10° W 21:54:50 17° SW 21:55:30 17° SW visible
13 Sep 4.1 21:24:39 10° W 21:27:21 19° SW 21:29:14 14° S visible
14 Sep 4.0 20:56:58 10° W 20:59:50 21° SW 21:02:42 10° S visible
15 Sep 4.0 20:29:17 10° W 20:32:17 23° SW 20:35:16 10° S visible
16 Sep 3.9 20:01:35 10° W 20:04:42 25° SW 20:07:49 10° SSE visible
